Preview of NWS' New Version of Forecast
This preview is not operational and should not be used for support decisions.

Regional Weather Roundup (RWR)

Issued by National Weather Service (NWS)

                            
000
ASUS44 KMEG 260100
RWRTN 
TENNESSEE HOURLY STATE WEATHER ROUNDUP
NATIONAL WEATHER SERVICE MEMPHIS TN
800 PM CDT SUN AUG 25 2019

TNZ002-004-019-021-049-052-054-088>092-260200-
WEST TENNESSEE
  
CITY           SKY/WX    TMP DP  RH WIND       PRES   REMARKS
MEMPHIS INTL   CLOUDY    80  76  87 SE7       29.87R                  
NWS MEMPHIS      N/A     79 N/A N/A MISG        N/A                   
JACKSON        CLOUDY    76  73  91 VRB7      29.91R                  
DYERSBURG      FAIR      74  74 100 CALM      29.90R                  
$$

TNZ008-025-027-028-033-062-065-066-260200-
NORTH MIDDLE TENNESSEE
  
CITY           SKY/WX    TMP DP  RH WIND       PRES   REMARKS
NASHVILLE      LGT RAIN  75  72  90 S5        29.97R FOG              
CLARKSVILLE    LGT RAIN  72  71  97 SE5       29.94S                  
SMYRNA         RAIN      73  71  93 SE6       29.98R                  
CROSSVILLE     MOCLDY    70  66  87 CALM      30.07R                  
$$

TNZ061-075-076-078-094-096-097-260200-
SOUTH MIDDLE TENNESSEE
  
CITY           SKY/WX    TMP DP  RH WIND       PRES   REMARKS
$$

TNZ017-018-042-046-047-260200-
NORTHEAST TENNESSEE
  
CITY           SKY/WX    TMP DP  RH WIND       PRES   REMARKS
TRI CITIES     CLOUDY    71  59  65 SE7       30.11R                  
$$

TNZ012-013-036-069-073-074-260200-
CENTRAL EAST TENNESSEE
  
CITY           SKY/WX    TMP DP  RH WIND       PRES   REMARKS
KNOXVILLE      LGT RAIN  71  69  93 NE3       30.04R                  
OAK RIDGE      CLOUDY    76  68  76 CALM      30.04R                  
$$

TNZ083-085-099-260200-
SOUTHEAST TENNESSEE
  
CITY           SKY/WX    TMP DP  RH WIND       PRES   REMARKS
CHATTANOOGA    MOCLDY    75  68  78 S3        30.03R                  
$$

SKY/WX REPORTED AS FAIR MEANS FEW OR NO CLOUDS BELOW
12 THOUSAND FEET.